Location: Mount Kobau Star Party
(49.1167°N, 119.7333°W)
Time: 11:20:46
(UTC-07:00)

ARIANE 6 FM1 Upper Stage - Pass Details

Date: 20 April 2026
Orbit: 526 x 601 km, 62.0° (Epoch: 18 May)

Event Time Altitude Azimuth Distance (km) Brightness Sun altitude
Rises 20:52:24 0° 290° (WNW) 2,703 8.3 -8.7°
Reaches altitude 10° 20:55:33 10° 316° (NW) 1,798 6.7 -9.2°
Maximum altitude 20:57:46 14° 350° (N) 1,538 5.5 -9.5°
Drops below altitude 10° 20:59:59 10° 23° (NNE) 1,784 5.3 -9.8°
Sets 21:03:05 0° 49° (NE) 2,668 5.9 -10.2°
